Back to catalog

FENGYUN 1C DEB

AliveSSO
NORAD 30398·DEBRIS·🇨🇳 China

Launched May 10, 1999 from Taiyuan Satellite Launch Center

Loading…

Next Passes (next 24 hours)

TLE

FreshSource: Space-Track

Epoch: Sep 13, 2026, 13:29 UTC

1 30398U 99025ADM 26256.56196852  .00000271  00000-0  28060-3 0  9990
2 30398  99.6944 164.6478 0172455 299.4688 184.2000 13.78937160985442

Track FENGYUN 1C DEB in real time with AllMySat

Download on the App Store